Location: Lake Arresoe
(56.0000°N, 12.5000°E)
Time: 17:35:44
(UTC+02:00)

Resurs 1-4 Rocket - Pass Details

Date: 01 August 2021
Orbit: 799 x 815 km, 98.6° (Epoch: 23 September)

Event Time Altitude Azimuth Distance (km) Brightness Sun altitude
Rises 02:34:30 0° 18° (NNE) 3,349 7.3 -14.2°
Reaches altitude 10° 02:36:55 10° 23° (NNE) 2,411 6.0 -14.1°
Maximum altitude 02:42:09 54° 101° (E) 978 2.6 -13.8°
Enters shadow 02:46:16 16° 175° (S) 1,989 3.6 -13.6°
